OBJECT AA, 47437

Orbit data source: Space-Track

You're viewing an Uncataloged Satellite

Recently launched and/or uncataloged satellites may have evolving metadata. Metadata may include but not limited to: Owner, Maufacturer, Bus, Motor, and Mission.

OBJECT AA, 47437 is a satellite in SSO that was launched on Sun, 24 Jan 2021 UTC launched from the Air Force Eastern Test Range (AFETR). Unknown objects in Earth's orbit typically refer to objects detected orbiting the Earth but have not yet been identified or cataloged. These objects could be anything from previously untracked satellites, spent rocket stages, debris from satellite collisions, or even natural meteoroids temporarily captured by Earth's gravity.

Loading next visibility...
Identifier
47437, 2021-006AA
Orbit
SSO
Last TLE update
5 hours ago
Origin
Manufacturer
SpaceX/Seattle
Mission
Spacecraft
Bus & Motor
Unknown
Mass
~100 kg wet, ~100 kg dry
Launch date (UTC)
2021-01-24 (4 years ago)
Launch vehicle
Unknown
Launch site
Air Force Eastern Test Range (AFETR)
Object type
Unknown
Shape & HBR
Cyl, Unknown HBR
Radar Cross Section
0.110 m², Medium (>0.1 m² and < 1m²)

Expand to show TLE details & history

TLE from 5 hours ago
0 OBJECT AA
1 47437U 21006AA  25182.19587744  .00004015  00000-0  15554-3 0  9990
2 47437  97.2738 227.1663 0010004  22.3475 337.8198 15.26675751245698
Epoch: 2025-07-01T04:42Z
TLE epoch observation values (Epoch: 2025-07-01T04:42:03.81Z)
Latitude
-0.00005°
Longitude
-122.84438°
Altitude
482.502 km
Speed
7.628 km/s
True Right ascension
15h 08m 39s
True Declination
0° 00' 00"
Sunlit
Object was in full shadow at epoch
Visualization orbit readout
Latitude
37.84503°
Longitude
-128.30578°
Altitude
484.512 km
Speed
7.63 km/s
Apparent Right ascension
12h 10m 32s
Apparent Declination
0° 52' 40"
Sunlit
Object is in daylight
Visualization observer readout
Local Sidereal Time
21:13:27
Azimuth
304.022° NW
Elevation
-32.637°
Doppler factor
1
Orbital elements
Apogee altitude
489.573 km
Perigee altitude
475.846 km
Semi-major axis
6,860.846 km
Eccentricity
0.001
Inclination
97.2738°
RAAN
227.1663°
Arg. of periapsis
22.3475°
True anomaly
Unknown
Mean anomaly
337.8198°
Eccentric anomaly
Unknown
Mean motion
3.81924 °/min
Orbital period
94.26 mins
BSTAR
0.00015554
Loading maneuver chart data...
Loading SW <> Apogee altitude chart data...

OBJECT AA Visibility forecast

Observer location: undefined°, undefined°

Span
Click to sort rows by Start time (UTC) header in descending order
Start Az.
Max El. time (UTC)
Max El. Az.
Max El.
End time (UTC)
End Az.
5 mins2025-07-01 16:17:09.378Z344.319° N2025-07-01 16:19:09.378Z278.892° WNW33.497°2025-07-01 16:22:09.378Z216.206° SW
5 mins2025-07-02 02:52:09.378Z147.845° SSE2025-07-02 02:54:09.378Z69.155° E40.584°2025-07-02 02:57:09.378Z357.373° N
|